SCP
0 0 0 0 0 0 0 0 0 0 0 0 0 0 0 0 0 0 0 0 0 0 0 0 0 0 0 0 0 0 0 0 0 0 0 0 0 0 0 0 0 0 0 0
0 0 0 0 0 0 0 0 0 0 0 0 0 0 0 0 0 0 0 0 0 0 0 0 0 0 0 0 0 0 0 0 0 0 0 0 0 0 0 0 0 0 0 0
0 0 0 0 0 0 0 0 0 0 0 0 0 0 0 0 0 0 0 0 0 0 0 0 0 0 0 0 0 0 0 0 0 0 0 0 0 0 0 0 0 0 0 0
0 0 0 0 0 0 0 0 0 0 0 0 0 0 0 0 0 0 0 0 0 0 0 0 0 0 0 0 0 0 0 0 0 0 0 0 0 0 0 0 0 0 0 0
0 0 0 0 0 0 0 0 0 0 0 0 0 0 0 0 0 0 0 0 0 0 0 0 0 0 0 0 0 0 0 0 0 0 0 0 0 0 0 0 0 0 0 0
0 0 0 0 0 0 0 0 0 0 0 0 0 0 0 0 0 0 0 0 0 0 0 0 0 0 0 0 0 0 0 0 0 0 0 0 0 0 0 0 0 0 0 0
0 0 0 0 0 0 0 0 0 0 0 0 0 0 0 0 0 0 0 0 0 0 0 0 0 0 0 0 0 0 0 0 0 0 0 0 0 0 0 0 0 0 0 0
0 0 0 0 0 0 0 0 0 0 0 0 0 0 0 0 0 0 0 0 0 0 0 0 0 0 0 0 0 0 0 0 0 0 0 0 0 0 0 0 0 0 0 0
0 0 0 0 0 0 0 0 0 0 0 0 0 0 0 0 0 0 0 0 0 0 0 0 0 0 0 0 0 0 0 0 0 0 0 0 0 0 0 0 0 0 0 0
0 0 0 0 0 0 0 0 0 0 0 0 0 0 0 0 0 0 0 0 0 0 0 0 0 0 0 0 0 0 0 0 0 0 0 0 0 0 0 0 0 0 0 0
0 0 0 0 0 0 0 0 0 0 0 0 0 0 0 0 0 0 0 0 0 0 0 0 0 0 0 0 0 0 0 0 0 0 0 0 0 0 0 0 0 0 0 0
0 0 0 0 0 0 0 0 0 0 0 0 0 0 0 0 0 0 0 0 0 0 0 0 0 0 0 0 0 0 0 0 0 0 0 0 0 0 0 0 0 0 0 0
0 0 0 0 0 0 0 0 0 0 0 0 0 0 0 0 0 0 0 0 0 0 0 0 0 0 0 0 0 0 0 0 0 0 0 0 0 0 0 0 0 0 0 0
0 0 0 0 0 0 0 0 0 0 0 0 0 0 0 0 0 0 0 0 0 0 0 0 0 0 0 0 0 0 0 0 0 0 0 0 0 0 0 0 0 0 0 0
0 0 0 0 0 0 0 0 0 0 0 0 0 0 0 0 0 0 0 0 0 0 0 0 0 0 0 0 0 0 0 0 0 0 0 0 0 0 0 0 0 0 0 0
0 0 0 0 0 0 0 0 0 0 0 0 0 0 0 0 0 0 0 0 0 0 0 0 0 0 0 0 0 0 0 0 0 0 0 0 0 0 0 0 0 0 0 0
0 0 0 0 0 0 0 0 0 0 0 0 0 0 0 0 0 0 0 0 0 0 0 0 0 0 0 0 0 0 0 0 0 0 0 0 0 0 0 0 0 0 0 0
0 0 0 0 0 0 0 0 0 0 0 0 0 0 0 0 0 0 0 0 0 0 0 0 0 0 0 0 0 0 0 0 0 0 0 0 0 0 0 0 0 0 0 0
0 0 0 0 0 0 0 0 0 0 0 0 0 0 0 0 0 0 0 0 0 0 0 0 0 0 0 0 0 0 0 0 0 0 0 0 0 0 0 0 0 0 0 0
0 0 0 0 0 0 0 0 0 0 0 0 0 0 0 0 0 0 0 0 0 0 0 0 0 0 0 0 0 0 0 0 0 0 0 0 0 0 0 0 0 0 0 0
0 0 0 0 0 0 0 0 0 0 0 0 0 0 0 0 0 0 0 0 0 0 0 0 0 0 0 0 0 0 0 0 0 0 0 0 0 0 0 0 0 0 0 0
0 0 0 0 0 0 0 0 0 0 0 0 0 0 0 0 0 0 0 0 0 0 0 0 0 0 0 0 0 0 0 0 0 0 0 0 0 0 0 0 0 0 0 0
0 0 -0 0 0 0 0 0 0 0 0 0 0 0 0 0 0 0 0 0 0 0 0 0 0 0 0 0 0 0 0 0 0 0 0 0 0 0 0 0 0 0 0 0
0 0 0 0 0 0 0 0 0 0 0 0 0 0 0 0 0 0 0 0 0 0 0 0 0 0 0 0 0 0 0 0 0 0 0 0 0 0 0 0 0 0 0 0
0 0 0 0 0 0 0 0 0 0 0 0 0 0 0 0 0 0 0 0 0 0 0 0 0 0 0 0 0 0 0 0 0 0 0 0 0 0 0 0 0 0 0 0
0 0 0 0 0 0 0 0 0 0 0 0 0 0 0 0 0 0 0 0 0 0 0 0 0 0 0 0 0 0 0 0 0 0 0 0 0 0 0 0 0 0 0 0
0 0 0 0 0 0 0 0 0 0 0 0 0 0 0 0 0 0 0 0 0 0 0 0 0 0 0 0 0 0 0 0 0 0 0 0 0 0 0 0 0 0 0 0
Wind_Speed
5 5 4 5 6 6 7 7 8 8 8 11 8 6 6 5 4 3 4 3 3 3 3 3 3 3 3 3 3 2 2 3 3 3 3 3 3 3 3 2 3 3 3 4
4 3 4 6 7 8 8 7 8 8 11 8 6 3 4 4 4 4 5 4 4 4 4 4 4 4 3 3 3 2 3 4 4 3 3 3 3 3 2 2 2 3 3 4
4 4 4 7 8 9 7 7 7 10 10 4 4 5 5 5 4 5 6 5 5 4 4 4 4 4 4 4 3 3 4 4 4 3 4 4 3 3 3 3 3 3 4 4
2 2 6 6 2 5 6 7 7 7 7 5 6 6 6 5 4 5 5 5 5 4 5 4 4 4 4 3 3 4 4 4 4 4 4 4 3 4 3 3 3 3 4 4
1 3 8 6 3 3 4 6 6 8 8 6 3 4 5 4 3 5 5 5 4 4 4 4 4 4 3 4 3 4 5 5 5 4 4 4 4 4 3 3 4 4 4 4
2 3 6 5 2 1 2 5 3 4 6 4 0 2 5 3 3 4 4 3 3 3 3 4 4 3 3 4 4 5 5 5 5 4 4 5 5 4 3 3 4 4 4 4
3 5 8 5 2 2 2 6 3 3 4 4 4 6 5 3 4 3 4 4 3 3 3 4 3 2 3 4 5 5 5 4 4 4 4 4 3 3 3 3 3 4 5 5
3 4 9 2 3 5 6 3 3 3 4 4 5 5 4 4 4 4 4 3 3 3 4 4 3 2 4 5 5 4 3 4 4 4 3 2 3 3 3 3 4 4 4 5
8 8 5 3 5 5 3 5 5 4 4 4 4 5 4 4 4 4 4 3 3 3 4 4 3 2 4 5 4 3 3 4 4 3 3 2 3 3 3 3 3 4 4 4
6 9 7 7 7 7 6 6 6 5 5 4 5 5 5 4 4 4 3 3 3 3 4 5 4 3 4 4 3 3 3 4 3 2 2 2 2 3 3 4 4 4 4 4
8 9 7 7 7 7 6 5 5 4 4 5 4 5 4 4 4 4 3 3 2 3 4 5 5 4 4 3 2 3 3 3 3 2 2 2 2 3 4 4 4 4 4 3
9 7 6 7 5 4 5 6 5 4 4 3 4 4 4 4 4 4 3 3 3 3 4 5 5 5 4 3 2 2 3 2 2 2 2 2 2 3 4 5 6 7 7 6
9 6 7 8 6 5 5 6 5 4 5 4 3 3 3 4 3 3 3 3 4 4 4 4 4 5 4 3 3 2 3 3 2 2 2 2 2 2 3 4 5 5 6 7
7 5 7 6 6 5 5 4 3 3 3 3 3 3 3 3 3 4 4 4 4 4 4 4 4 5 4 3 3 3 3 3 3 2 2 2 2 2 2 3 4 4 5 6
7 6 7 6 5 4 3 3 3 4 3 3 2 3 3 3 4 5 4 3 3 3 4 4 4 5 4 3 3 3 2 2 2 2 2 2 2 2 2 3 3 3 3 4
5 4 4 5 7 6 4 4 4 5 4 3 3 4 4 4 4 4 4 3 3 4 4 4 4 4 3 2 2 2 2 4 3 2 2 2 2 2 2 2 3 3 3 3
4 5 5 6 6 6 6 6 6 5 4 4 5 4 3 2 3 4 4 3 4 5 4 4 5 4 3 2 2 2 2 2 4 2 2 2 2 2 2 2 3 3 3 4
8 8 7 6 6 6 6 5 5 5 5 5 4 3 3 3 4 5 4 4 4 4 4 4 3 3 2 2 2 1 1 2 2 2 2 2 2 2 2 2 3 3 4 4
5 6 6 6 6 5 5 5 5 5 4 3 3 4 4 4 4 4 3 3 4 5 5 3 5 3 2 3 2 1 1 2 2 2 2 3 3 2 2 2 3 3 3 3
3 3 4 4 3 4 4 4 4 4 4 3 4 4 4 4 3 3 3 4 4 4 4 4 3 2 3 3 2 1 1 2 2 2 2 2 2 2 3 3 3 3 3 3
4 3 3 3 3 3 4 4 3 4 4 3 4 5 5 4 3 2 2 4 4 3 3 5 2 2 2 2 2 1 1 2 2 2 2 2 2 3 3 3 3 3 3 3
3 3 3 3 3 3 3 2 3 3 3 3 3 3 3 3 3 3 4 4 4 4 3 2 2 3 3 3 1 1 2 2 2 2 2 2 2 2 3 3 3 3 3 3
3 3 3 3 3 3 2 2 2 2 3 3 3 3 3 3 2 2 4 3 2 4 3 2 4 5 5 1 1 1 1 2 2 2 2 2 2 3 3 3 3 3 3 3
2 2 2 2 1 1 3 3 2 2 2 3 3 3 2 2 2 3 3 4 5 5 3 4 6 6 4 1 1 1 2 2 2 2 2 2 2 2 3 3 3 3 3 3
2 2 2 2 2 3 3 2 2 2 2 2 2 2 2 2 2 2 2 2 4 4 2 4 6 5 2 1 1 1 2 2 2 2 2 2 2 2 2 2 2 2 2 2
2 2 2 3 3 2 2 1 1 2 1 2 2 1 1 1 2 2 2 2 3 4 2 2 2 2 1 1 1 2 2 2 3 2 2 2 2 2 2 2 3 2 2 2
2 2 1 2 2 2 2 2 2 2 2 2 2 2 1 1 1 1 2 2 2 2 1 1 1 1 1 1 1 2 2 2 2 2 2 2 2 2 2 3 2 2 2 2
Wind_Direction
264 272 249 240 238 218 212 212 220 246 249 267 276 278 282 288 297 304 305 302 295 290 286 287 288 284 274 272 271 266 260 259 260 262 263 260 258 259 259 251 258 263 268 269
284 273 265 266 247 226 230 233 241 261 268 263 272 275 280 284 281 285 292 295 294 289 288 284 278 277 277 272 268 261 256 259 262 255 256 257 256 256 255 256 260 263 265 271
273 298 321 272 236 211 213 213 206 231 248 269 283 277 271 271 266 270 280 285 283 281 277 276 273 268 266 265 269 260 257 259 259 251 252 256 258 251 252 253 256 259 262 266
270 356 248 249 216 192 212 238 221 242 258 255 257 275 273 256 250 269 278 281 283 283 285 286 283 279 273 272 263 258 257 254 251 245 248 255 248 242 247 252 255 256 259 260
185 250 276 289 262 189 201 265 226 231 257 271 284 315 291 256 240 255 268 271 274 275 278 281 279 275 275 269 263 259 257 250 247 243 246 252 249 246 246 250 256 256 260 258
175 231 251 265 292 240 133 284 260 217 244 252 310 303 277 276 283 285 288 285 287 297 296 284 280 282 274 269 261 258 260 257 251 245 242 245 245 245 249 252 256 258 263 259
205 240 264 268 292 109 161 262 282 229 237 220 218 234 264 298 298 286 290 289 289 295 289 280 282 280 273 272 263 267 274 273 261 251 246 241 243 243 244 254 260 261 266 267
178 221 257 246 133 191 230 276 283 263 247 242 252 272 281 283 284 288 295 296 297 298 295 294 286 268 274 271 275 286 285 276 262 258 254 242 237 244 241 242 251 258 265 272
204 225 257 213 225 247 254 268 267 255 254 250 257 266 271 273 277 283 283 286 292 290 299 305 297 266 268 283 294 295 286 277 268 265 262 250 239 248 249 242 249 261 264 271
258 266 265 260 262 269 261 255 259 251 252 245 248 258 265 270 274 283 285 287 296 304 304 305 305 293 272 286 292 285 279 279 276 264 269 272 260 249 248 244 248 258 266 273
258 274 292 274 252 261 268 265 266 264 252 241 243 259 260 266 272 275 282 291 291 291 291 296 303 302 295 287 283 278 276 274 278 272 265 269 274 267 264 250 248 259 257 256
239 241 238 267 274 272 268 267 259 256 266 262 238 249 262 265 267 272 278 282 288 289 289 296 304 304 304 298 277 267 277 277 277 279 278 278 283 302 292 287 285 281 280 277
244 258 254 269 281 274 266 268 264 250 247 263 264 247 254 267 272 277 280 279 278 281 286 294 299 299 300 296 283 267 269 277 277 280 277 280 283 284 300 310 307 302 298 295
247 261 273 267 268 273 267 269 273 273 262 250 259 264 261 271 278 276 275 277 282 285 289 293 295 297 302 296 288 280 278 279 282 272 273 273 276 281 287 300 314 316 315 310
249 235 246 271 280 281 276 269 270 270 266 267 260 259 258 260 268 273 280 289 292 289 291 296 297 301 312 303 295 291 289 287 283 281 281 280 283 287 293 297 302 307 318 323
264 262 253 260 265 269 265 253 251 257 259 263 268 267 264 259 266 277 282 279 279 282 287 291 288 292 301 296 296 296 287 296 307 295 288 287 286 288 295 300 304 304 306 310
238 257 253 258 258 259 251 245 242 248 252 254 259 267 269 274 281 283 284 280 273 273 276 275 281 293 291 280 272 276 281 290 302 300 284 280 280 280 286 291 296 299 298 306
231 240 239 239 244 252 258 254 248 247 248 251 259 259 251 252 263 273 282 293 298 294 286 277 282 288 284 281 268 266 269 275 280 276 278 280 284 282 282 286 293 299 306 310
244 245 247 246 242 238 244 249 248 245 247 245 245 248 247 249 256 267 275 279 283 288 291 291 304 310 297 289 294 267 277 285 291 292 289 300 308 305 298 294 294 296 302 307
259 258 256 259 250 236 242 248 244 244 242 230 239 249 255 257 255 258 261 262 257 259 274 285 288 283 281 283 297 286 284 282 286 294 300 302 302 303 300 295 295 298 300 300
261 263 263 261 262 253 244 242 237 242 244 227 227 238 250 263 261 253 262 278 278 267 273 283 283 272 268 271 273 260 263 272 277 280 283 286 290 294 296 297 297 297 297 298
258 257 259 259 258 266 263 243 233 240 245 238 236 238 249 264 266 261 250 255 276 289 290 273 270 276 283 281 238 237 254 258 262 266 268 271 274 280 286 291 292 295 294 293
258 258 260 259 255 264 283 263 239 233 238 241 239 237 240 248 243 252 278 271 271 284 288 271 284 292 293 282 237 243 256 262 265 264 265 266 268 271 276 281 285 287 288 290
259 261 262 269 258 261 272 271 258 245 243 250 247 240 236 256 269 249 255 286 293 292 288 294 302 303 306 321 263 261 264 266 269 272 272 273 272 273 275 277 280 282 283 287
253 254 251 241 245 253 257 272 288 281 271 274 277 269 245 230 247 268 271 278 290 297 298 301 306 309 321 303 266 264 266 270 272 273 271 275 277 279 280 280 281 283 285 283
240 245 245 240 242 250 249 241 259 273 274 289 299 291 275 267 264 273 278 280 284 295 299 296 302 303 300 280 273 272 272 282 289 288 280 277 279 279 280 282 283 280 280 279
255 257 263 274 264 242 230 229 244 256 249 254 281 281 273 278 281 283 284 285 289 290 289 288 283 273 272 272 277 279 277 277 275 275 276 276 277 277 281 283 283 281 278 275